Proserpine Hamilton Isla, Australia

3:26 AM AEST on February 20, 2017 (GMT +1000)
Proserpine Hamilton Isla

Weather History for 94368 - April, 2013

Change the Weather History Date:

Saturday, April 27, 2013

  Actual Average Record
Temperature  
Mean Temperature 74 °F -  
Max Temperature 78 °F - - ()
Min Temperature 71 °F - - ()
Cooling Degree Days 10    
Growing Degree Days 24 (Base 50)    
Moisture  
Dew Point 69 °F    
Average Humidity 82    
Maximum Humidity 100    
Minimum Humidity 67    
Precipitation  
Precipitation 0.02 in - - ()
Sea Level Pressure  
Sea Level Pressure 30.02 in    
Wind  
Wind Speed 22 mph ()    
Max Wind Speed 31 mph    
Max Gust Speed 31 mph    
T = Trace of Precipitation, MM = Missing Value Source: Averaged Metar Reports

Daily Weather History Graph

Daily Weather History Graph

Search for Another Location

Airport or City:

Trip Planner

Search our weather history database for the weather conditions in past years. The results will help you decide how hot, cold, wet, or windy it might be!

Date:

Astronomy

Apr. 27, 2013 Rise Set
Actual Time 6:19 AM AEST 5:44 PM AEST
Civil Twilight 5:56 AM AEST 6:07 PM AEST
Nautical Twilight 5:30 AM AEST 6:33 PM AEST
Astronomical Twilight 5:04 AM AEST 6:59 PM AEST
Moon 6:59 PM AEST (4/27) 7:26 AM AEST (4/27)
Length of Visible Light 12h 10m
Length of Day
11h 25m
Full, 98% of the Moon is Illuminated
Apr 27
Full
May 2
Last Quarter
May 10
New
May 18
First Quarter
May 25
Full

Hourly Weather History & Observations

Time (AEST) Temp. Dew Point Humidity Pressure Visibility Wind Dir Wind Speed Gust Speed Precip Events Conditions
12:00 AM 75 °F 69 °F 75% 30.04 in - ESE 23.0 mph - -  
12:00 AM 75.2 °F 68.0 °F 78% 30.04 in - ESE 23.0 mph - N/A   Unknown
12:30 AM 75.2 °F 68.0 °F 78% 30.04 in - ESE 21.9 mph - N/A   Unknown
1:00 AM 75.2 °F 69.8 °F 83% 30.04 in - SE 21.9 mph - N/A   Unknown
1:30 AM 75.2 °F 69.8 °F 83% 30.01 in - ESE 21.9 mph - N/A   Unknown
2:00 AM 75.2 °F 69.8 °F 83% 30.01 in - SE 25.3 mph - N/A   Unknown
2:30 AM 75.2 °F 69.8 °F 83% 30.01 in - SE 24.2 mph - N/A   Unknown
3:00 AM 75 °F 69 °F 75% 30.01 in - SE 25.3 mph - -  
3:00 AM 75.2 °F 68.0 °F 78% 30.01 in - SE 25.3 mph - N/A   Unknown
3:30 AM 75.2 °F 68.0 °F 78% 30.01 in - SE 26.5 mph - N/A   Unknown
4:00 AM 75.2 °F 69.8 °F 83% 30.01 in - SE 25.3 mph - N/A   Unknown
4:30 AM 75.2 °F 68.0 °F 78% 30.01 in - SE 26.5 mph - N/A   Unknown
5:00 AM 73.4 °F 69.8 °F 88% 30.01 in - SSE 23.0 mph - N/A   Unknown
5:30 AM 73.4 °F 69.8 °F 88% 30.01 in - SSE 21.9 mph - N/A   Unknown
6:00 AM 73 °F 70 °F 88% 30.02 in - SSE 23.0 mph - -  
6:00 AM 73.4 °F 69.8 °F 88% 30.01 in - SSE 23.0 mph - N/A   Unknown
6:30 AM 73.4 °F 69.8 °F 88% 30.04 in - SSE 21.9 mph - N/A   Unknown
7:00 AM 73.4 °F 71.6 °F 94% 30.04 in - SSE 20.7 mph - N/A   Unknown
7:30 AM 73.4 °F 69.8 °F 88% 30.04 in - SSE 24.2 mph - N/A   Unknown
8:00 AM 73.4 °F 69.8 °F 88% 30.04 in - SSE 24.2 mph - N/A   Unknown
8:30 AM 73.4 °F 69.8 °F 88% 30.04 in - SSE 24.2 mph - N/A   Unknown
9:00 AM 72 °F 72 °F 100% 30.07 in - SE 25.3 mph - -  
9:00 AM 73.4 °F 71.6 °F 94% 30.06 in - SE 25.3 mph - N/A   Unknown
9:30 AM 75.2 °F 71.6 °F 89% 30.06 in - SE 21.9 mph - N/A   Unknown
10:00 AM 73.4 °F 69.8 °F 88% 30.06 in - SE 24.2 mph - N/A   Unknown
10:20 AM 77.0 °F 69.8 °F 78% 30.04 in - ESE 23.0 mph - N/A   Unknown
10:30 AM 77.0 °F 68.0 °F 74% 30.04 in - ESE 24.2 mph - N/A   Unknown
11:00 AM 78.8 °F 69.8 °F 74% 30.04 in - SE 26.5 mph - N/A   Unknown
11:30 AM 77.0 °F 68.0 °F 74% 30.04 in - ESE 28.8 mph - N/A   Unknown
12:00 PM 78 °F 69 °F 67% 30.03 in - ESE 24.2 mph - -  
12:00 PM 78.8 °F 69.8 °F 74% 30.04 in - ESE 24.2 mph - N/A   Unknown
12:30 PM 78.8 °F 68.0 °F 69% 30.01 in - SE 24.2 mph - N/A   Unknown
1:00 PM 77.0 °F 69.8 °F 78% 30.01 in - SSE 21.9 mph - N/A   Unknown
1:30 PM 77.0 °F 69.8 °F 78% 30.01 in - SSE 25.3 mph - N/A   Unknown
2:00 PM 77.0 °F 69.8 °F 78% 29.98 in - SE 23.0 mph - N/A   Unknown
2:30 PM 75.2 °F 68.0 °F 78% 29.98 in - SE 29.9 mph - N/A   Unknown
3:00 PM 72 °F 70 °F 91% 29.99 in - SE 23.0 mph - -  
3:00 PM 73.4 °F 69.8 °F 88% 29.98 in - SE 23.0 mph - N/A   Unknown
3:22 PM 73.4 °F 69.8 °F 88% 29.98 in - SE 19.6 mph 31.1 mph N/A   Unknown
3:30 PM 73.4 °F 69.8 °F 88% 29.98 in - SE 31.1 mph - N/A   Unknown
4:00 PM 71.6 °F 71.6 °F 100% 29.98 in - SE 11.5 mph - N/A   Unknown
4:17 PM 73.4 °F 68.0 °F 83% 29.98 in - SE 18.4 mph - N/A   Unknown
4:30 PM 75.2 °F 68.0 °F 78% 29.98 in - SE 26.5 mph - N/A   Unknown
5:00 PM 75.2 °F 68.0 °F 78% 29.98 in - SE 26.5 mph - N/A   Unknown
5:30 PM 75.2 °F 68.0 °F 78% 30.01 in - SE 25.3 mph - N/A   Unknown
6:00 PM 75 °F 69 °F 75% 30.01 in - SE 25.3 mph - -  
6:00 PM 75.2 °F 68.0 °F 78% 30.01 in - SE 25.3 mph - N/A   Unknown
6:30 PM 75.2 °F 69.8 °F 83% 30.01 in - SE 25.3 mph - N/A   Unknown
7:00 PM 75.2 °F 68.0 °F 78% 30.01 in - SE 27.6 mph - N/A   Unknown
7:30 PM 75.2 °F 68.0 °F 78% 30.01 in - SE 28.8 mph - N/A   Unknown
8:00 PM 75.2 °F 68.0 °F 78% 30.04 in - SE 27.6 mph - N/A   Unknown
8:30 PM 75.2 °F 68.0 °F 78% 30.04 in - SE 26.5 mph - N/A   Unknown
9:00 PM 75 °F 68 °F 73% 30.04 in - SE 26.5 mph - -  
9:00 PM 75.2 °F 68.0 °F 78% 30.04 in - SE 26.5 mph - N/A   Unknown
9:30 PM 75.2 °F 69.8 °F 83% 30.04 in - SE 27.6 mph - N/A   Unknown
10:00 PM 75.2 °F 68.0 °F 78% 30.04 in - SE 27.6 mph - N/A   Unknown
10:30 PM 75.2 °F 69.8 °F 83% 30.04 in - SE 25.3 mph - N/A   Unknown
11:00 PM 75.2 °F 69.8 °F 83% 30.04 in - SE 26.5 mph - N/A   Unknown
11:30 PM 75.2 °F 69.8 °F 83% 30.01 in - SE 25.3 mph - N/A   Unknown